Location: Cañada de la Miga
(34.7595°N, 106.2317°W)
Time: 07:16:47
(UTC+00:00)

Transit 4A - Pass Details

Date: 02 December 2021
Orbit: 864 x 980 km, 66.8° (Epoch: 16 January)

Event Time Altitude Azimuth Distance (km) Brightness Sun altitude
Rises 04:16:39 0° 260° (W) 3,460 11.4 -53.3°
Enters shadow 04:17:50 - 267° (W) 3,137 11.2 -53.6°
Reaches altitude 10° 04:20:36 10° 287° (WNW) 2,544 - -54.1°
Maximum altitude 04:23:21 13° 315° (NW) 2,327 - -54.7°
Drops below altitude 10° 04:26:09 10° 343° (NNW) 2,583 - -55.2°
Sets 04:30:15 0° 10° (N) 3,556 - -56.1°
